Regional Weather Roundup
Issued by NWS Cleveland, OH

Home | Current Version | Previous Version | Graphics & Text | Print | Product List | Glossary Off
Versions: 1 2 3 4 5 6 7 8 9 10 11 12 13 14 15 16 17 18 19 20 21 22 23 24 25 26 27 28 29 30 31 32 33 34 35 36 37 38 39 40 41 42 43 44 45 46 47 48 49 50

000
ASUS41 KCLE 211412
RWRCLE
OHIO REGIONAL WEATHER ROUNDUP
NATIONAL WEATHER SERVICE WILMINGTON, OH
1000 AM EDT FRI JUL 21 2017

NOTE: "FAIR" INDICATES FEW OR NO CLOUDS BELOW 12,000 FEET WITH NO
SIGNIFICANT WEATHER AND/OR OBSTRUCTIONS TO VISIBILITY.

OHZ001>008-015>018-024>027-034-035-043-044-211500-
   NORTHWEST OHIO

CITY           SKY/WX    TMP DP  RH WIND       PRES   REMARKS
DEFIANCE       FAIR     N/A N/A N/A CALM      30.01F
FINDLAY        FAIR      80  71  74 NW5       30.00F
TOLEDO EXPRESS FAIR      80  72  76 NE3       29.99F
TOLEDO EXEC    FAIR      81  72  74 CALM      30.00S
LIMA           FAIR      76  73  91 NW3       30.02F
$$

OHZ009>014-019>023-028>033-038-089-211500-
   NORTHEAST OHIO

CITY           SKY/WX    TMP DP  RH WIND       PRES   REMARKS
CLE-HOPKINS    PTSUNNY   82  74  76 N7        30.01S
CLE-LAKEFRONT  PTSUNNY   80  73  79 W5        29.98S
CUY CO. ARPT   CLOUDY    81  73  78 N7        30.00S
LORAIN-ELYRIA  FAIR      79  69  71 N7        30.00S
ASHTABULA      PTSUNNY   78  73  84 NW6       30.01R
AKRON-CANTON   PTSUNNY   81  71  71 NE6       30.01S
WOOSTER        FAIR      81  74  79 VRB3      30.01F
MANSFIELD      PTSUNNY   79  74  84 NW5       30.03R
YOUNGSTOWN     CLOUDY    80  71  74 CALM      30.01S
$$

OHZ042-051>053-060>062-070>072-077>081-211500-
  SOUTHWEST OHIO

CITY           SKY/WX    TMP DP  RH WIND       PRES   REMARKS
CINC-COVINGTON CLOUDY    73  73 100 S5        30.06F
CINC-LUNKEN    LGT RAIN  73  73 100 S3        30.05F
HAMILTON       RAIN      72  71  97 CALM      30.04F FOG
DAYTON         LGT RAIN  71  69  93 CALM      30.02F
WRIGHT-PAT AFB LGT RAIN  71  71 100 CALM      30.01F
DAYTON GENERAL LGT RAIN  72  67  84 CALM      30.03F
WILMINGTON     LGT RAIN  72  70  93 NW14      30.04F
$$

OHZ036-037-039>041-045>050-054>059-063>069-073>076-082>088-211500-
  CENTRAL AND SOUTHEAST OHIO

CITY           SKY/WX    TMP DP  RH WIND       PRES   REMARKS
COLUMBUS       TSTM      72  72 100 NW12G22   30.02R
OSU AIRPORT    TSTM      73  72  96 W15G25    30.03S
BOLTON FIELD   TSTM      72  70  94 NW15      30.03R
RICKENBACK AFB TSTM      72  72 100 NW13G23   30.01F
NEWARK         PTSUNNY   80  76  87 NW5       30.00R
MARION         PTSUNNY   80  73  79 N6        30.02S HAZE
LANCASTER      TSTM      72  72 100 NW15G30   30.01S FOG
ZANESVILLE     PTSUNNY   81  75  82 CALM      29.99F
NEW PHILLY     PTSUNNY   79  76  90 CALM      30.01S FOG
$$




USA.gov is the U.S. government's official web portal to all federal, state and local government web resources and services.